Location: Bednik
(45.3500°N, 16.3833°E)
Time: 05:25:26
(UTC+00:00)

Cosmos 1763 Rocket - Pass Details

Date: 08 August 2020
Orbit: 732 x 780 km, 74.0° (Epoch: 23 September)

Event Time Altitude Azimuth Distance (km) Brightness Sun altitude
Rises 20:42:12 0° 341° (NNW) 3,273 8.1 -21.3°
Reaches altitude 10° 20:44:38 10° 345° (NNW) 2,343 7.0 -21.6°
Maximum altitude 20:49:55 62° 66° (ENE) 876 3.7 -22.1°
Enters shadow 20:51:05 49° 118° (ESE) 1,000 3.7 -22.2°
